| time (UTC) | temp F | wind direction | speed knots | gust knots | rain 1hr in | rain 24hr in | rain mn in | humidity % | barometer mb |
| 20260505014556 | 68 | 285 | 3.5 | 7.0 | 0.00 | 0.00 | 0.00 | 35 | 997.9 |
| 20260505013059 | 68 | 266 | 3.5 | 6.1 | 0.00 | 0.00 | 0.00 | 39 | 997.4 |
| 20260505011552 | 69 | 278 | 1.7 | 7.0 | 0.00 | 0.00 | 0.00 | 38 | 996.5 |
| 20260505010111 | 70 | 255 | 2.6 | 7.0 | 0.00 | 0.00 | 0.00 | 38 | 996.0 |
| 20260505004555 | 72 | 229 | 2.6 | 10.4 | 0.00 | 0.00 | 0.00 | 37 | 995.8 |
| 20260505003124 | 74 | 276 | 1.7 | 3.5 | 0.00 | 0.00 | 0.00 | 35 | 995.3 |
| 20260505001558 | 74 | 248 | 2.6 | 5.2 | 0.00 | 0.00 | 0.00 | 34 | 994.7 |
| 20260505000059 | 75 | 225 | 3.5 | 6.1 | 0.00 | 0.00 | 0.00 | 33 | 994.8 |
| 20260504234555 | 75 | 258 | 2.6 | 7.0 | 0.00 | 0.00 | 0.00 | 32 | 994.8 |
| 20260504233057 | 75 | 280 | 4.3 | 8.7 | 0.00 | 0.00 | 0.00 | 31 | 995.0 |
| 20260504231552 | 75 | 303 | 4.3 | 10.4 | 0.00 | 0.00 | 0.00 | 31 | 995.4 |
| 20260504230113 | 75 | 269 | 8.7 | 19.1 | 0.00 | 0.00 | 0.00 | 29 | 995.5 |
| 20260504224612 | 76 | 291 | 5.2 | 12.2 | 0.00 | 0.00 | 0.00 | 30 | 995.4 |
| 20260504223053 | 79 | 271 | 7.8 | 15.6 | 0.00 | 0.00 | 0.00 | 29 | 995.4 |
| 20260504221553 | 79 | 245 | 8.7 | 16.5 | 0.00 | 0.00 | 0.00 | 28 | 995.2 |
| 20260504220057 | 79 | 240 | 8.7 | 14.8 | 0.00 | 0.00 | 0.00 | 28 | 995.5 |
| 20260504214551 | 78 | 231 | 7.0 | 18.2 | 0.00 | 0.00 | 0.00 | 28 | 995.7 |
| 20260504213056 | 78 | 221 | 7.8 | 14.8 | 0.00 | 0.00 | 0.00 | 27 | 995.7 |
| 20260504211558 | 79 | 295 | 6.1 | 18.2 | 0.00 | 0.00 | 0.00 | 27 | 995.8 |
| 20260504210101 | 79 | 263 | 9.6 | 17.4 | 0.00 | 0.00 | 0.00 | 26 | 995.9 |
| 20260504204556 | 79 | 297 | 9.6 | 19.1 | 0.00 | 0.00 | 0.00 | 27 | 996.1 |
| 20260504203057 | 78 | 211 | 7.8 | 20.0 | 0.00 | 0.00 | 0.00 | 27 | 996.2 |
| 20260504201604 | 78 | 210 | 8.7 | 16.5 | 0.00 | 0.00 | 0.00 | 27 | 996.4 |
| 20260504194555 | 78 | 260 | 7.8 | 16.5 | 0.00 | 0.00 | 0.00 | 26 | 996.8 |
| 20260504193052 | 78 | 243 | 8.7 | 16.5 | 0.00 | 0.00 | 0.00 | 25 | 996.7 |
| 20260504191606 | 78 | 193 | 9.6 | 17.4 | 0.00 | 0.00 | 0.00 | 26 | 996.9 |
| 20260504190052 | 77 | 210 | 8.7 | 15.6 | 0.00 | 0.00 | 0.00 | 26 | 997.0 |
| 20260504184551 | 77 | 245 | 7.8 | 20.9 | 0.00 | 0.00 | 0.00 | 27 | 996.9 |
| 20260504183053 | 76 | 245 | 11.3 | 17.4 | 0.00 | 0.00 | 0.00 | 27 | 997.1 |
| 20260504181559 | 76 | 260 | 10.4 | 20.0 | 0.00 | 0.00 | 0.00 | 26 | 997.4 |
| 20260504180052 | 75 | 162 | 7.8 | 19.1 | 0.00 | 0.00 | 0.00 | 27 | 997.3 |
| 20260504174558 | 75 | 249 | 7.0 | 19.1 | 0.00 | 0.00 | 0.00 | 27 | 997.6 |
| 20260504173058 | 75 | 266 | 8.7 | 14.8 | 0.00 | 0.00 | 0.00 | 27 | 997.7 |
| 20260504171555 | 74 | 245 | 10.4 | 19.1 | 0.00 | 0.00 | 0.00 | 28 | 998.2 |
| 20260504120124 | 55 | 231 | 0.0 | 3.5 | 0.00 | 0.00 | 0.00 | 63 | 1001.4 |
| 20260504081557 | 49 | 0 | 0.0 | 0.9 | 0.00 | 0.00 | 0.00 | 76 | 1002.5 |
| 20260504044555 | 57 | 275 | 0.0 | 2.6 | 0.00 | 0.00 | 0.00 | 63 | 1003.9 |
| 20260504043111 | 57 | 278 | 1.7 | 4.3 | 0.00 | 0.00 | 0.00 | 62 | 1003.9 |
| 20260504041552 | 57 | 260 | 1.7 | 5.2 | 0.00 | 0.00 | 0.00 | 62 | 1004.0 |
| 20260504040055 | 55 | 248 | 1.7 | 3.5 | 0.00 | 0.00 | 0.00 | 68 | 1003.9 |
| 20260504034555 | 52 | 0 | 0.0 | 1.7 | 0.00 | 0.00 | 0.00 | 77 | 1003.9 |
| 20260504033116 | 53 | 0 | 0.0 | 0.0 | 0.00 | 0.00 | 0.00 | 75 | 1004.0 |
| 20260504031557 | 53 | 0 | 0.0 | 0.0 | 0.00 | 0.00 | 0.00 | 76 | 1004.0 |
| 20260504030114 | 54 | 0 | 0.0 | 0.0 | 0.00 | 0.00 | 0.00 | 75 | 1004.0 |
| 20260504024553 | 55 | 0 | 0.0 | 0.9 | 0.00 | 0.00 | 0.00 | 73 | 1004.0 |
| 20260504023055 | 56 | 0 | 0.0 | 0.9 | 0.00 | 0.00 | 0.00 | 68 | 1003.8 |
| 20260504021558 | 57 | 0 | 0.0 | 0.9 | 0.00 | 0.00 | 0.00 | 62 | 1003.7 |
| 20260504020105 | 58 | 255 | 0.0 | 0.9 | 0.00 | 0.00 | 0.00 | 64 | 1003.8 |